Regional Weather Roundup
Issued by NWS Little Rock, AR

Home | Current Version | Previous Version | Text Only | Print | Product List | Glossary On
Versions: 1 2 3 4 5 6 7 8 9 10 11 12 13 14 15 16 17 18 19 20 21 22 23 24 25 26 27 28 29 30 31 32 33 34 35 36 37 38 39 40 41 42 43 44 45 46 47 48
000
ASUS44 KLZK 221105
RWRLZK

WEATHER ROUNDUP FOR ARKANSAS
NATIONAL WEATHER SERVICE LITTLE ROCK AR
600 AM CDT FRI MAY 22 2015

NOTE: "FAIR" INDICATES FEW OR NO CLOUDS BELOW 12,000 FEET WITH NO
SIGNIFICANT WEATHER AND/OR OBSTRUCTIONS TO VISIBILITY.

ARZ001-003-010-029-221200-
NORTHWEST ARKANSAS

CITY           SKY/WX    TMP DP  RH WIND       PRES   REMARKS
FAYETTEVILLE   MOCLDY    44  44 100 CALM      30.24S
FORT SMITH     PTCLDY    53  49  86 E6        30.23R
HARRISON       PTCLDY    45  43  93 CALM      30.26R
BENTONVILLE    MOCLDY    48  45  87 SE3       30.24R
ROGERS         FOG       48  47  96 SE3       30.24S VSB 1/4
SILOAM SPGS    MOCLDY    46  41  81 E3        30.25R
SPRINGDALE     CLEAR     46  46 100 SE3       30.26
$$

ARZ004-005-016-221200-
NORTH CENTRAL ARKANSAS

CITY           SKY/WX    TMP DP  RH WIND       PRES   REMARKS
BATESVILLE     CLOUDY    45  43  93 CALM      30.27R VSB 1/4
FLIPPIN          N/A     45  43  93 CALM      30.25R VSB 3/4
MTN HOME       CLEAR     46  45  96 CALM      30.25R
$$

ARZ040-041-221200-
WEST CENTRAL ARKANSAS

CITY           SKY/WX    TMP DP  RH WIND       PRES   REMARKS
MENA           CLOUDY    52  52 100 CALM      30.25R
MOUNT IDA      MOCLDY    51  49  92 CALM      30.23R
$$

ARZ009-017-025-026-028-221200-
NORTHEAST ARKANSAS

CITY           SKY/WX    TMP DP  RH WIND       PRES   REMARKS
CORNING          N/A     46  46 100 CALM      30.27S
JONESBORO      CLEAR     43  43 100 CALM      30.27R
NEWPORT        CLEAR     50  48  92 CALM      30.29R
WALNUT RIDGE   CLEAR     46  43  87 CALM      30.26S
BLYTHEVILLE    PTCLDY    46  45  96 NE3       30.27R
$$

ARZ022-023-033-042-044-221200-
CENTRAL ARKANSAS

CITY           SKY/WX    TMP DP  RH WIND       PRES   REMARKS
LITTLE ROCK    CLOUDY    52  49  89 CALM      30.27R
N LITTLE ROCK    N/A     50  50 100 N3        30.27R
JACKSONVILLE   MOCLDY    47  47  97 CALM      30.27R
HOT SPRINGS    CLOUDY    52  49  89 CALM      30.27R
RUSSELLVILLE   MOCLDY    52  50  93 CALM      30.27R
CLINTON        FAIR      46  45  93 S3        30.30R
$$

ARZ036-221200-
EAST ARKANSAS

CITY           SKY/WX    TMP DP  RH WIND       PRES   REMARKS
WEST MEMPHIS   CLEAR     46  46 100 CALM      30.26R
$$

ARZ050-053-066-070-073-221200-
SOUTHWEST ARKANSAS

CITY           SKY/WX    TMP DP  RH WIND       PRES   REMARKS
ARKADELPHIA    FAIR      52  51  96 N3        30.27R
CAMDEN         MOCLDY    48  46  93 CALM      30.25R
TEXARKANA      CLEAR     52  50  93 CALM      30.24R
EL DORADO      MOCLDY    50  47  89 NE5       30.24R
DE QUEEN       FAIR      53  51  93 E5        30.23R
$$

ARZ056-057-069-221200-
SOUTHEAST ARKANSAS

CITY           SKY/WX    TMP DP  RH WIND       PRES   REMARKS
PINE BLUFF     CLOUDY    51  49  92 CALM      30.27R
STUTTGART      MOCLDY    52  46  82 NE5       30.27S
MONTICELLO     MOCLDY    48  47  96 E5        30.24R

$$




USA.gov is the U.S. government's official web portal to all federal, state and local government web resources and services.